Location: Monfort
(47.1967°N, 0.2115°W)
Time: 04:21:38
(UTC+00:00)

Cosmos 1825 - Pass Details

Date: 24 October 2020
Orbit: 501 x 508 km, 82.5° (Epoch: 01 December)

Event Time Altitude Azimuth Distance (km) Brightness Sun altitude
Rises 18:40:17 0° 360° (N) 2,629 5.8 -18.2°
Reaches altitude 10° 18:42:37 10° 11° (N) 1,737 4.8 -18.6°
Enters shadow 18:43:38 16° 21° (NNE) 1,393 4.2 -18.8°
